Regional Weather Roundup
Issued by NWS Sterling, VA

Home | Current Version | Previous Version | Text Only | Print | Product List | Glossary Off
Versions: 1 2 3 4 5 6 7 8 9 10 11 12 13 14 15 16 17 18 19 20 21 22 23 24 25 26 27 28 29 30 31 32 33 34 35 36 37 38 39 40 41 42 43 44 45 46 47 48 49 50

000
ASUS41 KLWX 260210
RWRLWX

REGIONAL WEATHER ROUNDUP
NATIONAL WEATHER SERVICE BALTIMORE MD/WASHINGTON DC
1000 PM EDT SAT MAR 25 2017

Note: "FAIR" indicates few or no clouds below 12,000 feet
with no significant weather and/or obstructions to visibility.
 TC=TEMPERATURE CELSIUS

 * =Non NWS site. Station does not report precipitation (e.g. rain,
    snow, etc.), thunder, or fog.

DCZ001-MDZ009-015-VAZ040>042-051-053>054-260300-
WASHINGTON METRO

CITY           SKY/WX    TMP DP  RH WIND       PRES   REMARKS
WASHINGTON NAT CLOUDY    67  52  58 S8        30.18R
DULLES         CLOUDY    69  50  50 SE7       30.17S
ANDREWS AFB    CLOUDY    67  51  56 SE8       30.17S
FT BELVOIR     CLOUDY    67  51  56 CALM      30.17S
QUANTICO       CLOUDY    62  51  67 S8        30.19R
COLLEGE PARK*  CLOUDY    66  50  55 CALM      30.17S
LEESBURG*      CLOUDY    70  55  60 E5        30.18S
MANASSAS*        N/A     68  53  58 S5        30.18R

$$

MDZ006>007-011-014-260300-
BALTIMORE METRO

CITY           SKY/WX    TMP DP  RH WIND       PRES   REMARKS
BWI AIRPORT    CLOUDY    65  53  65 E23G30    30.21R
MD SCIENCE CTR   N/A     65  53  65 MISG      30.23R
MARTIN STATE   PTCLDY    61  55  82 NE14G20   30.25
ANNAPOLIS      CLOUDY    62  50  64 E16       30.22R
FORT MEADE*    CLOUDY    68  50  52 E12G18    30.22R

$$

MDZ012-015-019>023-260300-
MARYLAND EASTERN SHORE

CITY           SKY/WX    TMP DP  RH WIND       PRES   REMARKS
OCEAN CITY     PTCLDY    53  47  79 N9        30.24R
SALISBURY      CLOUDY    62  53  72 NE12      30.22R
BAY BRIDGE AP* CLOUDY    59  48  67 E14       30.22R
CAMBRIDGE*     CLOUDY    63  54  72 NE9       30.22R
EASTON*        MOCLDY    59  46  63 E13       30.26R

$$

MDZ017>025-260300-
SOUTHERN MARYLAND

CITY           SKY/WX    TMP DP  RH WIND       PRES   REMARKS
PATUXENT RIVER MOCLDY    53  51  93 CALM      30.19S
ST INIGOES     MOCLDY    65  52  62 S5        30.19S
LEONARDTOWN*   PTCLDY    63  50  63 CALM      30.20F

$$

MDZ003>005-260300-
NORTH CENTRAL MARYLAND

CITY           SKY/WX    TMP DP  RH WIND       PRES   REMARKS
FREDERICK*     NOT AVBL
HAGERSTOWN APT CLOUDY    63  50  62 N13       30.18R
WESTMINSTER*   CLOUDY    66  54  63 E7        30.20S

$$

MDZ501>502-260300-
WESTERN MARYLAND

CITY           SKY/WX    TMP DP  RH WIND       PRES   REMARKS
OAKLAND*       PTCLDY    57  45  62 SE10      30.21F
CUMBERLAND*    PTCLDY    64  50  59 CALM      30.20S

$$

VAZ025>031-260300-
SHENANDOAH VALLEY

CITY           SKY/WX    TMP DP  RH WIND       PRES   REMARKS
WINCHESTER*    CLOUDY    61  50  67 CALM      30.17S
FRONT ROYAL*   CLOUDY    66  52  59 CALM      30.16S
LURAY*         PTCLDY    63  54  72 S3        30.17S
NEW MARKET*    CLOUDY    61  51  71 CALM      30.17R
STAUNTON*      CLOUDY    63  49  59 S3        30.20S
WAYNESBORO*    CLOUDY    62  50  64 CALM      30.19S

$$

WVZ021-048>050-054>055-260300-
EASTERN WEST VIRGINIA PANHANDLE

CITY           SKY/WX    TMP DP  RH WIND       PRES   REMARKS
MARTINSBURG    CLOUDY    66  51  58 CALM      30.16S
PETERSBURG*    CLOUDY    61  54  79 W5        30.17S

$$

VAZ036>039-050-260300-
CENTRAL FOOTHILLS

CITY           SKY/WX    TMP DP  RH WIND       PRES   REMARKS
CHARLOTTESVILL CLOUDY    67  50  54 S7        30.18R
CULPEPER*      CLOUDY    68  54  59 S3        30.19R
ORANGE*        CLOUDY    68  50  52 S5        30.20R
GORDONSVILLE*  CLOUDY    67  52  57 SW6       30.18R
WARRENTON*     CLOUDY    71  47  43 S5        30.17S

$$

VAZ055>057-260300-
NORTH AND CENTRAL PIEDMONT

CITY           SKY/WX    TMP DP  RH WIND       PRES   REMARKS
FREDERICKSBRG* MOCLDY    69  53  56 S7        30.18R
STAFFORD*      CLOUDY    70  51  50 S5        30.22R

$$

NCZ024-NYZ072-PAZ021-071-VAZ022-071-260300-
OTHER REGIONAL OBSERVATIONS

CITY           SKY/WX    TMP DP  RH WIND       PRES   REMARKS
NEW YORK CITY  CLOUDY    45  41  86 NE8       30.38S
PHILADELPHIA   MOCLDY    47  40  76 E12       30.32R
PITTSBURGH     CLOUDY    66  52  60 E7        30.13F
ROANOKE        CLOUDY    65  48  54 S6        30.21R
RICHMOND       CLOUDY    65  52  62 S6        30.21R
RALEIGH        CLOUDY    65  48  54 S5        30.23R

$$

ANZ530>537-260300-
MARINE OBSERVATIONS

STATION/POSITION TIME  TEMP    WIND        PRES
                       AIR SEA DIR/SP/G
                 (UTC) (F)     (DEG/KT/KT) (MB)
THOMAS PT LIGHT  0100   59 45  190/  9/  9   N/A
BALT KEY BRIDGE  0136   61      70/ 17/ 19 1022.9R
COVE POINT       0136   55     180/  8/  9 1023.1S
LEWISETTA        0136   69 50  240/  5/  6 1022.2R
SOLOMONS ISLAND  0136   54 48   90/  4/  5   N/A
PINEY POINT      0142          140/  4/  4   N/A

$$




USA.gov is the U.S. government's official web portal to all federal, state and local government web resources and services.